Weather History for Scappoose, OR

Change the Weather History Date:

Monday, September 10, 2012

  Actual Average Record
Temperature  
Mean Temperature 60 °F -  
Max Temperature 70 °F - 93 °F (2007)
Min Temperature 50 °F - 42 °F (1999)
Degree Days  
Heating Degree Days 5    
Month to date heating degree days 88  
Since 1 July heating degree days 153  
Cooling Degree Days 0    
Month to date cooling degree days 19  
Year to date cooling degree days 220  
Growing Degree Days 10 (Base 50)    
Moisture  
Dew Point 46 °F    
Average Humidity 60    
Maximum Humidity 80    
Minimum Humidity 39    
Precipitation  
Precipitation 0.01 in - 0.43 in (2000)
Month to date precipitation 0.01  
Year to date precipitation 31.00  
Sea Level Pressure  
Sea Level Pressure 30.14 in    
Wind  
Wind Speed 6 mph (NW)    
Max Wind Speed 15 mph    
Max Gust Speed 20 mph    
Visibility 10 miles    
Events Rain    
T = Trace of Precipitation, MM = Missing Value Source: NWS Daily Summary

Daily Weather History Graph

Daily Weather History Graph

Search for Another Location

Airport:

Trip Planner

Search our weather history database for the weather conditions in past years. The results will help you decide how hot, cold, wet, or windy it might be!

Date:

Astronomy

Sep. 10, 2012 Rise Set
Actual Time 6:44 AM PDT 7:31 PM PDT
Civil Twilight 6:14 AM PDT 8:01 PM PDT
Nautical Twilight 5:38 AM PDT 8:37 PM PDT
Astronomical Twilight 5:00 AM PDT 9:14 PM PDT
Moon 12:57 AM PDT (9/10) 4:16 PM PDT (9/10)
Length of Visible Light 13h 47m
Length of Day
12h 46m
Waning Crescent, 29% of the Moon is Illuminated
Sep 10
Waning Crescent
Sep 15
New
Sep 22
First Quarter
Sep 29
Full
Oct 8
Last Quarter

Hourly Weather History & Observations

Time (PDT) Temp. Dew Point Humidity Pressure Visibility Wind Dir Wind Speed Gust Speed Precip Events Conditions
12:53 AM 62.1 °F 52.0 °F 70% 30.03 in 10.0 mi SW 5.8 mph - N/A   Overcast
1:53 AM 61.0 °F 52.0 °F 72% 30.04 in 10.0 mi SE 3.5 mph - N/A Rain Light Rain
2:53 AM 61.0 °F 52.0 °F 72% 30.03 in 10.0 mi SSE 3.5 mph - N/A   Overcast
3:53 AM 61.0 °F 52.0 °F 72% 30.04 in 10.0 mi Calm Calm - N/A   Overcast
4:18 AM 60.8 °F 53.6 °F 77% 30.06 in 10.0 mi WNW 8.1 mph - N/A   Overcast
4:53 AM 57.0 °F 52.0 °F 83% 30.07 in 10.0 mi NNW 8.1 mph - N/A   Overcast
5:53 AM 55.9 °F 48.9 °F 77% 30.09 in 10.0 mi Calm Calm - N/A   Overcast
6:53 AM 55.9 °F 46.9 °F 72% 30.11 in 10.0 mi North 4.6 mph - N/A   Overcast
7:53 AM 55.0 °F 46.9 °F 74% 30.14 in 10.0 mi NW 3.5 mph - N/A   Partly Cloudy
8:53 AM 59.0 °F 46.9 °F 64% 30.16 in 10.0 mi Variable 6.9 mph - N/A   Clear
9:53 AM 61.0 °F 45.0 °F 56% 30.17 in 10.0 mi NW 10.4 mph - N/A   Scattered Clouds
10:53 AM 63.0 °F 44.1 °F 50% 30.18 in 10.0 mi North 6.9 mph - N/A   Overcast
12:53 PM 66.0 °F 42.1 °F 42% 30.18 in 10.0 mi Variable 3.5 mph - N/A   Overcast
1:53 PM 64.9 °F 45.0 °F 48% 30.19 in 10.0 mi NW 11.5 mph 17.3 mph N/A   Overcast
2:53 PM 68.0 °F 44.1 °F 42% 30.17 in 10.0 mi WNW 8.1 mph - N/A   Mostly Cloudy
3:53 PM 68.0 °F 42.1 °F 39% 30.17 in 10.0 mi WNW 9.2 mph - N/A   Mostly Cloudy
4:53 PM 66.0 °F 44.1 °F 45% 30.17 in 10.0 mi Variable 4.6 mph - N/A   Mostly Cloudy
5:53 PM 64.9 °F 43.0 °F 45% 30.16 in 10.0 mi North 8.1 mph - N/A   Partly Cloudy
6:53 PM 63.0 °F 43.0 °F 48% 30.17 in 10.0 mi NNW 9.2 mph - N/A   Clear
7:53 PM 59.0 °F 42.1 °F 53% 30.18 in 10.0 mi NNW 8.1 mph - N/A   Clear
8:53 PM 57.0 °F 42.1 °F 57% 30.20 in 10.0 mi NW 8.1 mph 19.6 mph N/A   Clear
9:53 PM 55.0 °F 43.0 °F 64% 30.21 in 10.0 mi NW 8.1 mph - N/A   Clear
10:53 PM 53.1 °F 44.1 °F 71% 30.22 in 10.0 mi Calm Calm - N/A   Clear
11:53 PM 52.0 °F 43.0 °F 71% 30.22 in 10.0 mi NNW 5.8 mph - N/A   Clear